Погода в Орше

Погода в Орше : погода сейчас, прогноз погоды и архив. Всё, что Вы хотите узнать о погоде в Орше!

Хотите узнать прогноз погоды в Орше? Тогда Вам сюда: Погода в Орше

Поиск расширенной информации на нашем сайте:

Другие новости

Новости СМИ2

Главная страница сайта

Новости сайта

03.07.2017

Напоминаем, что на нашем специализированном сайте Метеоцентр.Азия вы можете получить высокодетализированные автоматические прогнозы погоды по пунктам России, СНГ и мира в авиационном формате (включающие направление и скорость ветра, видимость, явления погоды, количество и форму облачности, нижнюю и верхнюю границу облачности).


Погода в Орше - сегодня

Время (UTC), дата Ветер
(°,м/с) 
Видим.   Явления Облачность Т
(°С)
Тd
(°С)
f(%) Тe
(°С)
Pmin
(гПа)
dP
(гПа)
Po
(мм)
O2
(г/м3)
Тmin Tmax R s Состояние
почвы
15 19.06.18 250 (З) 10 км    8/4 600 м кучево-дожд., средняя, верхняя 
[Cb cap|Ac trans|Cs]
+25.1 +14.4 51 +33  1011.9  -1.6  743  271           
18 19.06.18 270 (З) 10 км    9/3 600 м кучево-дожд., средняя, верхняя 
[Cb cap|Ac trans|Cs]
+23 +14.4 58 +31  1011.7  -0.3  743  273    +26.4       
21 19.06.18 310 (СЗ) 10 км    8/0 средняя, верхняя 
[Ac trans|Ci fib]
+19.7 +11.5 59 +24  1012.9  0.9  744  277           
00 20.06.18 290 (З) 10 км    4/0 средняя, верхняя 
[Ac trans|Ci fib]
+17.2 +11.1 67 +20  1014  744  280           
03 20.06.18 290 (З) 10 км    1/0 средняя 
[Ac lent]
+14.5 +10.3 76 +17  1015.8  1.4  745  283           
06 20.06.18 270 (З) 10 км    1/0 средняя 
[Ac lent]
+17.9 +10.6 62 +20  1015.8  0.3  746  280  +14.2         
09 20.06.18 310 (СЗ) 10 км    8/8 1200 м 
[Cu med, cong]
+20.5 +8.2 45 +21  1015.1  -0.5  745  278           
12 20.06.18 300 (СЗ) 5{11}  10 км    8/8 1080 м 
[Cu med, cong]
+23 +7 36 +23  1014.2  -0.8  745  276           
15 20.06.18 300 (СЗ) 5{11}  10 км    3/0 средняя 
[Ac trans]
+23.6 +5.5 31 +24  1013.6  -0.4  744  275           
18 20.06.18 310 (СЗ) 4{10}  10 км    ясно 
+22 +6.8 37 +22  1014  0.1  744  276    +24.1       
21 20.06.18 270 (З) 10 км    ясно 
+16.7 +7.6 55 +18  1015.1  0.8  745  282           
00 21.06.18 280 (З) 10 км    ясно 
+14.6 +8 65 +15  1015.7  0.4  745  284           
03 21.06.18 230 (ЮЗ) 10 км    ясно 
+12.5 +8.5 77 +14  1015.8  745  286           
06 21.06.18 250 (З) 10 км    ясно 
+18.6 +10.4 59 +22  1015.5  0.1  745  279  +10.6         
09 21.06.18 250 (З) 10 км    3/3 1000 м 
[Cu med, cong]
+23.7 +13.8 54 +31  1013.9  -1.1  745  273           
12 21.06.18 220 (ЮЗ) 10 км    8/8 750 м 
[Cu med, cong]
+25.8 +11.9 42 +30  1011.8  -1.9  743  271           
15 21.06.18 240 (ЮЗ) 10 км    8/5 930 м средняя 
[Cu hum|Ac trans]
+26.5 +12.2 41 +31  1010  -1.8  742  270           
18 21.06.18 160 (Ю) 10 км    ясно 
+22.5 +14.1 59 +30  1008.2  -1.9  740  273    +27.2       
21 21.06.18 180 (Ю) 10 км    5/0 средняя, верхняя 
[As trans|Ci fib]
+20.1 +13.1 64 +26  1006.9  -1.5  739  275           
00 22.06.18 180 (Ю) 10 км    8/0 средняя, верхняя 
[Ac As|Ci fib]
+19.2 +12.8 66 +25  1005.7  -1.3  738  275           
03 22.06.18 190 (Ю) 6000 м  слаб. ливневой дождь  10/8 660 м кучево-дожд., средняя 
[Cb cap|As op]
+18.4 +14 76 +26  1004.8  -1  737  276      0.0     
06 22.06.18 220 (ЮЗ) 10 км  {ливн. осадки}  10/6 630 м кучево-дожд., средняя 
[Cb cap|Ac As]
+20.5 +17 80 +33  1004.6  0.1  738  273  +17.4    0.4     
09 22.06.18 290 (З) 8000 м  слаб. ливневой дождь, в посл. час гроза  10/8 570 м кучево-дожд., средняя 
[Cb cap|As op]
+13.7 +12.4 92 +18  1007.8  2.6  740  281      18     
12 22.06.18 290 (З) 10 км  {гроза, ливн. осадки}  10/5 600 м кучево-дожд., средняя 
[Cb cap|Ac As]
+17.3 +11.9 71 +22  1008.8  1.3  740  278      0.1     
15 22.06.18 280 (З) 10 км    8/3 600 м кучево-дожд., средняя 
[Cb cap|Ac As]
+18 +9.3 57 +19  1010.8  1.9  742  279      20     
Время (UTC), дата Ветер
(°,м/с) 
Видим.   Явления Облачность Т
(°С)
Тd
(°С)
f(%) Тe
(°С)
Pmin
(гПа)
dP
(гПа)
Po
(мм)
O2
(г/м3)
Тmin Tmax R s Состояние
почвы

Для получения пояснительной информации подведите курсор к названию столбца.

ПОГОДА в Орше - архив

Всё, что Вы хотите узнать о погоде в Орше - удобно и подробно!

Выберите нужную дату (начиная с 1 января 2015* года) и нажмите кнопку "Найти".
Будут отображены архивные сводки погоды по пункту Орша, начиная с указанной даты.


Отображать данные в формате CSV (для использования в таблицах Excel)


Внимание! Наш архив погоды предназначен исключительно для личного некоммерческого использования в познавательных целях. Если Вам необходимы официальные справки о состоянии погоды (для производственных, юридических, коммерческих и т.п. целей), обращайтесь в органы Росгидромета.

*Примечание: данная дата относится к архиву по метеостанциям СССР (Россия, СНГ, Балтия).
Архив по метеостанциям Зарубежной Европы и Азии (кроме Китая) хранится 10 дней, по другим регионам земного шара (Китай, Африка, Америка, Австралия, Океания) - 1 день.

Орша - район местоположения метеостанции


Название, широта, долгота, высота метеостанции:
Орша 55°ш. 30.4°д. 185 м над ур. моря [Беларусь]

Дополнительная информация

В oтличие oт бoльшинства пoгoдных сайтoв мы публикуем пoдрoбную метеoинфoрмацию в детальнoм прoфессиoнальнoм фoрмате.

Характеристики температуры и влажнoсти вoздуха измеряются на высoте 2 м в тени вдали oт зданий и деревьев.
Скoрoсть ветра измеряется на высoте 10 м (на урoвне рoста челoвека скoрoсть ветра ниже в 1.5-2 раза). Если метеoстанция нахoдится в гoрoде или в лесу, тo скoрoсть ветра занижена на 2-4 м/с пo сравнению с oткрытым местoм. Скoрoсть ветра над акватoриями крупных рек и oзёр, а также на вершинах хoлмoв на 2-5 м/с выше, чем в oбычных услoвиях.
Атмoсфернoе давление в разных тoчках местнoсти мoжет значительнo oтличаться oт давления на метеoстанции, в зависимoсти oт услoвий рельефа (при пoдъёме на 10 м давление пoнижается примернo на 1 мм рт.ст.).